This demonstration page uses our WeatherBlox Daily Observations layout. Learn more.

Left ArrowRight Arrow

Hourly Observations for April 18, 2017

Temp ( °F °C ) Dew Point ( °F °C ) Humidity (%) Winds ( mph kmh ) Pressure ( in mb ) Visibility ( mi km ) Precip ( " mm )
12:59 am 00:59 Cloudy 60 15.6 58 14.4 93 93 ENE 6 9 30.14 1021 9 14 0.00 0.00
1:59 am 01:59 Cloudy 61 16.1 59 15 93 93 NE 6 9 30.15 1021 8 13 0.00 0.00
2:59 am 02:59 Cloudy 60 15.6 58 14.4 93 93 NNE 7 11 30.16 1021 7 11 0.00 0.00
3:59 am 03:59 Cloudy 60 15.6 57 13.9 90 90 NE 3 6 30.16 1021 7 11 0.00 0.00
4:46 am 04:46 Mostly Cloudy with Mist and Fog 60 15.6 56 13.3 86 86 NNE 5 7 30.18 1022 6 10 0.00 0.00
4:59 am 04:59 Mostly Cloudy 60 15.6 57 13.9 90 90 NNE 5 7 30.18 1022 7 11 0.00 0.00
5:59 am 05:59 Mostly Cloudy 62 16.7 58 14.4 86 86 NNE 6 9 30.21 1023 8 13 0.00 0.00
6:59 am 06:59 Cloudy 62 16.7 56 13.3 80 80 NE 9 15 30.24 1024 8 13 0.00 0.00
7:59 am 07:59 Mostly Cloudy 60 15.6 46 7.8 60 60 E 15 24 30.28 1025 10 16 0.00 0.00
8:59 am 08:59 Mostly Cloudy 60 15.6 42 5.6 52 52 E 17 28 30.31 1026 10 16 0.00 0.00
9:59 am 09:59 Mostly Cloudy 62 16.7 41 5 46 46 E 16 26 30.32 1027 10 16 0.00 0.00
10:59 am 10:59 Mostly Cloudy 63 17.2 44 6.7 50 50 E 18 30 30.35 1028 10 16 0.00 0.00
11:59 am 11:59 Mostly Cloudy 64 17.8 44 6.7 48 48 NE 15 24 30.37 1029 10 16 0.00 0.00
12:59 pm 12:59 Mostly Cloudy 63 17.2 41 5 45 45 ENE 20 31 30.38 1029 10 16 0.00 0.00
1:59 pm 13:59 Mostly Cloudy 63 17.2 42 5.6 47 47 ENE 18 30 30.38 1029 10 16 0.00 0.00
2:59 pm 14:59 Mostly Cloudy 64 17.8 43 6.1 46 46 E 15 24 30.37 1028 10 16 0.00 0.00
3:59 pm 15:59 Mostly Cloudy 62 16.7 41 5 46 46 E 14 22 30.37 1028 10 16 0.00 0.00
4:59 pm 16:59 Mostly Cloudy 61 16.1 40 4.4 46 46 E 10 17 30.37 1029 10 16 0.00 0.00
5:59 pm 17:59 Mostly Cloudy 59 15 42 5.6 54 54 E 12 19 30.38 1029 10 16 0.00 0.00
6:59 pm 18:59 Mostly Cloudy 58 14.4 43 6.1 58 58 E 13 20 30.38 1029 10 16 0.00 0.00
7:59 pm 19:59 Mostly Cloudy 55 12.8 45 7.2 69 69 E 7 11 30.39 1029 10 16 0.00 0.00
8:59 pm 20:59 Mostly Cloudy 55 12.8 46 7.8 72 72 E 9 15 30.40 1030 10 16 0.00 0.00
9:59 pm 21:59 Mostly Cloudy 54 12.2 47 8.3 77 77 ENE 8 13 30.42 1030 10 16 0.00 0.00
10:59 pm 22:59 Mostly Cloudy 55 12.8 48 8.9 77 77 E 12 19 30.42 1030 10 16 0.00 0.00
11:59 pm 23:59 Mostly Cloudy 54 12.2 50 10 87 87 E 10 17 30.42 1030 10 16 0.00 0.00

Powered by AerisWeather